Zurück zum Katalog

DELTA 1 DEB

AktivLEO
NORAD 18906·DEBRIS·🇺🇸 United States

Gestartet Nov 6, 1973 von Vandenberg Space Force Base

Loading…

Nächste Überflüge (nächste 24 Stunden)

TLE

AktuellSource: Space-Track

Epoche: Sep 14, 2026, 15:31 UTC

1 18906U 73086HB  26257.64707463 -.00000052  00000-0 -19634-4 0  9993
2 18906 102.2395 139.3000 0088779 292.3136  96.3914 12.55923780783292

Verfolge DELTA 1 DEB in Echtzeit mit AllMySat

Download on the App Store